| time (UTC) | temp F | wind direction | speed MPH | gust MPH | rain 1hr in | rain 24hr in | rain mn in | humidity % | barometer mb |
| 20260504081523 | 63 | 204 | 0.0 | 0.0 | 0.00 | 0.00 | 0.00 | 79 | 1016.7 |
| 20260504044547 | 64 | 203 | 0.0 | 0.0 | 0.00 | 0.00 | 0.00 | 72 | 1018.8 |
| 20260504043048 | 63 | 203 | 0.0 | 0.0 | 0.00 | 0.00 | 0.00 | 72 | 1018.9 |
| 20260504041549 | 64 | 203 | 0.0 | 0.0 | 0.00 | 0.00 | 0.00 | 70 | 1018.7 |
| 20260504040046 | 64 | 203 | 0.0 | 0.0 | 0.00 | 0.00 | 0.00 | 69 | 1018.7 |
| 20260504034600 | 65 | 203 | 0.0 | 0.0 | 0.00 | 0.00 | 0.00 | 68 | 1018.8 |
| 20260504033044 | 66 | 203 | 0.0 | 0.0 | 0.00 | 0.00 | 0.00 | 66 | 1018.8 |
| 20260504031543 | 66 | 203 | 0.0 | 0.0 | 0.00 | 0.00 | 0.00 | 65 | 1018.6 |
| 20260504030044 | 67 | 219 | 0.0 | 0.0 | 0.00 | 0.00 | 0.00 | 64 | 1018.6 |
| 20260504024543 | 67 | 219 | 0.0 | 0.0 | 0.00 | 0.00 | 0.00 | 64 | 1018.7 |
| 20260504023042 | 68 | 217 | 0.0 | 0.0 | 0.00 | 0.00 | 0.00 | 63 | 1018.7 |
| 20260504021541 | 68 | 217 | 0.0 | 1.0 | 0.00 | 0.00 | 0.00 | 63 | 1018.6 |
| 20260504020041 | 69 | 216 | 0.0 | 1.0 | 0.00 | 0.00 | 0.00 | 61 | 1018.6 |
| 20260504014553 | 70 | 207 | 0.0 | 1.0 | 0.00 | 0.00 | 0.00 | 61 | 1018.5 |
| 20260504013042 | 70 | 222 | 0.0 | 1.0 | 0.00 | 0.00 | 0.00 | 60 | 1018.6 |
| 20260504011543 | 71 | 181 | 0.0 | 1.0 | 0.00 | 0.00 | 0.00 | 58 | 1018.5 |
| 20260504010039 | 71 | 211 | 0.0 | 1.0 | 0.00 | 0.00 | 0.00 | 56 | 1018.5 |
| 20260504004539 | 72 | 245 | 0.0 | 1.0 | 0.00 | 0.00 | 0.00 | 54 | 1018.4 |
| 20260504003048 | 73 | 263 | 0.0 | 3.0 | 0.00 | 0.00 | 0.00 | 52 | 1018.3 |
| 20260504001536 | 74 | 133 | 0.0 | 2.0 | 0.00 | 0.00 | 0.00 | 51 | 1018.4 |
| 20260504000035 | 75 | 212 | 0.0 | 3.0 | 0.00 | 0.00 | 0.00 | 50 | 1018.4 |
| 20260503234544 | 77 | 167 | 0.0 | 6.0 | 0.00 | 0.00 | 0.00 | 47 | 1018.5 |
| 20260503233032 | 77 | 119 | 0.0 | 3.0 | 0.00 | 0.00 | 0.00 | 47 | 1018.7 |
| 20260503231530 | 78 | 81 | 0.0 | 3.0 | 0.00 | 0.00 | 0.00 | 46 | 1018.6 |
| 20260503230029 | 77 | 27 | 0.0 | 3.0 | 0.00 | 0.00 | 0.00 | 46 | 1018.8 |
| 20260503224527 | 77 | 214 | 1.0 | 6.0 | 0.00 | 0.00 | 0.00 | 46 | 1018.8 |
| 20260503223027 | 78 | 169 | 1.0 | 6.0 | 0.00 | 0.00 | 0.00 | 45 | 1019.2 |
| 20260503221525 | 78 | 221 | 0.0 | 3.0 | 0.00 | 0.00 | 0.00 | 46 | 1019.0 |
| 20260503220039 | 77 | 59 | 0.0 | 3.0 | 0.00 | 0.00 | 0.00 | 45 | 1019.0 |
| 20260503214521 | 77 | 89 | 0.0 | 5.0 | 0.00 | 0.00 | 0.00 | 44 | 1019.4 |
| 20260503213019 | 77 | 335 | 0.0 | 2.0 | 0.00 | 0.00 | 0.00 | 45 | 1019.6 |
| 20260503211518 | 77 | 84 | 0.0 | 4.0 | 0.00 | 0.00 | 0.00 | 46 | 1019.7 |
| 20260503210015 | 77 | 30 | 0.0 | 5.0 | 0.00 | 0.00 | 0.00 | 44 | 1019.9 |
| 20260503204514 | 77 | 34 | 1.0 | 7.0 | 0.00 | 0.00 | 0.00 | 43 | 1020.1 |
| 20260503203025 | 78 | 66 | 1.0 | 4.0 | 0.00 | 0.00 | 0.00 | 42 | 1020.5 |
| 20260503201515 | 78 | 49 | 0.0 | 4.0 | 0.00 | 0.00 | 0.00 | 42 | 1020.7 |
| 20260503200010 | 78 | 68 | 0.0 | 3.0 | 0.00 | 0.00 | 0.00 | 44 | 1020.9 |
| 20260503194508 | 78 | 89 | 0.0 | 5.0 | 0.00 | 0.00 | 0.00 | 40 | 1021.0 |
| 20260503193009 | 79 | 217 | 0.0 | 6.0 | 0.00 | 0.00 | 0.00 | 44 | 1021.3 |
| 20260503191513 | 79 | 68 | 0.0 | 3.0 | 0.00 | 0.00 | 0.00 | 39 | 1021.5 |
| 20260503190005 | 78 | 77 | 1.0 | 3.0 | 0.00 | 0.00 | 0.00 | 37 | 1021.8 |
| 20260503184504 | 78 | 63 | 1.0 | 5.0 | 0.00 | 0.00 | 0.00 | 36 | 1021.9 |
| 20260503183002 | 78 | 49 | 0.0 | 4.0 | 0.00 | 0.00 | 0.00 | 40 | 1022.2 |
| 20260503181611 | 79 | 153 | 0.0 | 4.0 | 0.00 | 0.00 | 0.00 | 41 | 1022.4 |
| 20260503180059 | 78 | 205 | 0.0 | 5.0 | 0.00 | 0.00 | 0.00 | 38 | 1022.5 |
| 20260503174557 | 78 | 150 | 0.0 | 2.0 | 0.00 | 0.00 | 0.00 | 40 | 1022.8 |
| 20260503173101 | 77 | 85 | 1.0 | 4.0 | 0.00 | 0.00 | 0.00 | 41 | 1023.1 |
| 20260503171554 | 77 | 169 | 0.0 | 3.0 | 0.00 | 0.00 | 0.00 | 42 | 1023.2 |